CCT2 weather

Cookstown Airport
Cookstown, Ontario, Canada

Public forecast

Using degrees Celsius for public forecast. Weather courtesy of forecast.io.

METAR (pilot weather report)

Closest report is CFB Borden, 11.9 nm (22.1 km) W. Retrieved 2019/05/25 04:00 UTC (21 minutes ago):

CYBN 250400Z AUTO 22002KT 9SM CLR 11/10 A3009 RMK SLP192

TAF (pilot weather forecast)

Forecast is more than 6 hours old.

Closest forecast is CFB Borden, 11.9 nm (22.1 km) W. Retrieved 2019/05/24 18:33 UTC (10 hours ago):

TAF TAF CYBN 241730Z 2418/2506 36010KT P6SM FEW020 BKN240 TEMPO 2418/2506 BKN020 OVC240 BECMG 2422/2424 VRB03KT RMK FCST BASED ON AUTO OBS. NXT FCST BY 250000Z